Wind_Speed
7 8 9 10 11 11 11 12 12 13 13 14 13 10 8 7 8 8 8 9 7 7 6 7 7 4 4 3 3 4 3 3 3 5 6 3 9 8 16 9 11 12 12 11 15 16 15
7 9 10 11 12 12 12 13 13 13 13 13 12 13 10 8 7 8 8 9 9 9 9 9 8 5 3 3 2 3 3 0 4 7 12 26 12 17 20 16 19 24 23 27 21 18 21
7 9 11 11 12 12 13 13 12 12 13 11 10 9 10 11 8 7 8 8 9 9 11 11 10 7 4 6 3 4 4 2 5 10 15 15 20 21 23 22 22 17 23 26 14 14 19
7 9 10 11 12 13 14 13 13 12 11 11 8 9 9 8 9 8 9 9 8 9 11 13 13 8 7 5 3 3 5 3 7 6 12 14 13 18 20 19 18 12 16 16 18 14 10
8 9 11 12 12 14 16 15 13 12 11 10 9 9 9 9 9 9 9 12 12 9 11 13 13 10 6 7 5 7 6 6 5 11 5 6 7 8 15 17 13 12 8 18 3 10 3
10 11 12 13 14 16 16 15 12 10 9 8 7 8 9 11 12 13 12 11 14 13 12 11 10 9 8 12 12 9 6 6 7 14 10 9 5 10 8 11 10 13 17 24 20 15 16
11 12 12 14 15 16 17 15 12 9 8 8 8 9 11 12 12 14 14 13 13 13 10 11 8 8 13 12 6 4 9 12 8 8 10 12 16 17 9 7 9 12 10 18 14 10 20
13 13 13 14 15 16 15 14 12 11 10 8 9 10 10 9 11 12 10 10 12 12 13 11 6 4 8 4 3 5 10 11 13 11 11 18 17 19 20 8 3 11 21 12 17 22 10
14 15 15 15 15 16 16 15 12 11 11 11 10 9 6 10 12 8 7 7 8 7 4 3 3 5 4 3 6 8 5 7 9 12 15 18 21 24 16 19 3 7 9 13 15 14 10
15 15 15 15 15 15 17 17 15 14 13 12 12 6 5 10 10 8 9 4 5 12 11 10 3 4 5 4 3 2 2 6 8 7 14 12 17 22 12 12 4 6 5 13 11 5 14
15 15 15 15 15 15 17 19 16 16 14 12 9 2 3 7 9 10 8 10 17 18 16 12 8 3 6 6 3 6 3 3 2 3 6 1 13 15 12 9 6 7 9 10 8 10 15
16 16 16 15 15 16 18 19 17 15 11 6 2 1 2 4 6 8 6 6 13 16 14 14 12 15 12 8 6 2 1 2 0 3 7 9 6 4 6 4 6 6 8 13 18 19 8
18 17 17 17 16 17 18 19 15 9 4 2 2 1 1 2 2 3 3 7 9 10 13 9 9 11 4 8 6 6 8 3 3 4 2 4 11 4 10 9 11 9 12 11 12 14 8
20 18 18 18 17 16 17 18 13 8 5 4 4 4 3 2 2 2 1 3 3 7 9 3 5 7 3 5 2 5 8 9 13 11 10 7 13 9 11 8 9 10 12 4 14 12 8
20 19 19 19 17 16 16 17 12 8 6 3 2 1 3 5 3 3 2 3 4 3 4 4 4 7 8 4 7 8 12 14 18 17 17 16 12 9 16 13 14 14 12 9 13 17 15
23 22 21 20 18 16 15 16 11 8 6 4 1 2 4 5 6 5 3 5 4 5 6 4 2 2 9 12 11 9 11 13 17 17 18 17 12 7 13 20 19 14 17 15 15 18 18
25 24 23 20 18 16 14 15 11 9 7 5 2 3 3 2 5 8 4 2 4 2 2 3 4 8 9 10 13 16 22 21 17 20 22 21 16 7 9 22 27 23 23 22 21 18 17
25 26 27 24 20 18 15 14 13 11 9 5 4 5 5 6 9 5 3 3 5 2 3 6 9 11 11 12 12 17 23 28 23 22 22 25 26 21 13 16 23 34 33 28 28 23 23
17 18 18 21 24 21 17 15 14 13 12 11 7 7 8 8 6 5 9 11 10 8 8 13 18 18 17 17 16 18 19 28 28 28 29 23 24 26 22 19 22 27 39 41 37 31 26
18 17 16 16 19 23 21 18 16 14 14 13 10 10 8 9 12 12 13 13 15 12 14 16 21 20 19 20 19 18 18 22 28 31 31 31 28 26 27 21 25 26 29 42 48 44 36
18 17 16 15 14 16 23 22 19 16 15 16 14 14 12 13 14 15 15 16 19 20 20 20 21 19 17 19 19 20 20 19 24 28 31 34 35 35 34 31 28 29 32 33 39 46 50
19 18 17 15 13 13 16 21 21 18 17 17 17 17 18 18 18 17 18 20 22 20 21 22 22 21 23 22 20 21 23 26 23 28 32 35 37 39 40 37 39 39 34 34 36 48 52
22 21 19 17 15 13 12 14 16 16 17 18 19 21 22 22 22 22 21 23 24 22 24 24 23 22 23 26 25 25 26 27 29 29 32 33 37 40 44 46 49 48 41 39 39 45 50
26 24 23 21 20 18 16 17 17 19 19 20 20 22 24 25 25 24 24 24 24 24 24 28 26 26 26 28 27 28 29 29 31 34 38 40 42 48 52 53 54 50 48 43 41 42 45
27 27 27 25 24 23 23 23 23 23 23 23 23 23 25 26 26 25 27 26 26 26 26 27 27 28 28 29 30 28 30 33 35 38 41 44 48 50 49 49 50 45 40 41 37 39 42
30 27 26 27 28 27 26 26 26 26 25 25 24 24 25 26 25 26 26 25 26 26 28 29 31 31 29 30 31 33 32 34 37 37 40 44 48 47 39 36 33 25 25 25 29 36 36
31 31 31 30 28 28 29 29 29 28 29 28 26 26 25 25 26 25 26 26 26 26 26 27 30 33 32 33 34 34 37 39 39 42 43 41 26 22 24 30 30 23 20 22 28 28 31
32 33 32 31 31 32 31 30 31 32 33 31 30 29 28 28 30 27 27 27 27 29 28 30 30 31 32 33 34 36 38 39 39 40 41 32 23 20 21 24 23 26 26 27 27 24 26
38 36 33 33 32 31 31 32 32 32 34 36 36 33 33 31 33 31 31 30 31 32 31 31 31 30 35 34 34 36 40 39 38 27 26 26 24 23 24 23 27 26 30 29 35 34 34
Wind_Direction
32 20 14 12 9 6 4 3 2 4 8 11 11 358 339 317 307 303 286 272 264 263 240 212 197 184 159 173 128 146 108 91 177 82 16 272 170 188 130 113 97 74 60 69 73 62 53
8 3 1 360 359 359 354 352 351 349 350 355 3 9 3 346 316 302 292 284 269 257 258 247 223 211 214 211 197 237 152 349 319 51 60 52 84 149 108 135 124 102 94 84 81 62 34
348 354 358 358 0 358 352 346 344 345 345 338 344 356 358 358 343 320 302 286 275 263 251 253 249 224 207 240 210 222 248 193 317 26 52 49 111 115 121 124 120 101 95 86 88 80 55
339 346 350 353 356 358 357 353 351 349 349 345 335 341 346 349 346 327 304 298 285 265 256 247 246 237 214 218 225 253 259 254 293 53 74 108 97 83 93 117 128 129 123 110 94 90 75
338 342 345 350 352 354 352 351 350 350 348 345 336 333 331 329 322 313 302 282 284 282 265 251 246 243 204 173 190 209 231 246 284 306 43 152 140 112 108 85 112 105 64 47 81 110 165
337 337 340 342 344 344 347 348 345 342 341 341 331 323 317 311 306 296 283 269 267 273 272 266 243 231 211 216 215 196 214 229 214 262 291 290 234 152 139 89 62 54 39 76 56 46 23
337 338 340 340 340 342 341 343 344 339 336 336 331 325 317 308 301 296 286 265 258 268 299 283 266 223 234 243 247 224 202 216 210 210 300 303 306 306 345 142 126 90 76 74 53 345 8
328 331 333 335 337 339 337 335 333 334 330 327 323 321 313 317 317 312 298 263 250 245 246 256 237 218 232 222 154 210 207 197 217 203 214 250 267 273 288 293 189 60 94 83 57 9 4
316 320 321 323 328 332 331 326 323 320 319 315 314 314 324 331 336 339 318 283 257 254 237 239 165 204 222 184 170 214 217 242 231 228 225 239 244 259 307 323 154 61 55 23 25 4 331
316 319 321 319 321 324 326 326 317 312 308 303 307 298 334 346 355 2 13 324 181 119 95 82 84 109 115 121 83 25 321 245 230 218 234 245 247 255 271 15 56 27 40 353 347 25 292
312 315 317 316 316 318 322 327 320 316 309 299 299 287 356 4 10 37 44 100 120 102 87 86 72 108 129 80 91 103 76 318 19 271 280 220 273 278 320 334 323 318 262 267 298 326 295
305 310 312 310 311 313 320 327 327 325 316 295 267 276 353 23 31 63 56 87 100 102 86 56 75 102 128 91 56 357 327 243 300 80 77 100 111 99 15 8 338 16 320 301 300 305 264
296 303 306 305 303 308 317 325 328 338 349 329 280 277 356 26 49 92 64 76 88 93 80 53 42 43 100 111 90 358 21 142 53 299 232 150 145 235 279 223 225 260 290 302 290 279 275
287 292 299 302 298 298 309 321 322 330 321 296 277 263 251 249 232 257 150 56 48 116 133 58 320 322 190 113 164 46 352 342 285 286 290 249 192 234 254 291 239 302 299 272 309 295 285
284 286 292 295 295 289 301 317 310 320 315 309 317 231 217 187 179 215 201 86 97 128 111 175 227 230 204 226 201 187 234 231 243 255 257 269 274 227 233 219 271 258 269 260 287 283 281
285 285 286 288 288 285 291 307 297 297 301 296 346 172 194 197 167 199 204 102 99 79 56 54 325 292 257 279 302 266 262 277 270 279 303 310 302 264 230 213 235 253 259 241 245 260 266
283 282 282 282 281 279 279 295 289 275 281 285 255 213 191 167 198 214 182 172 148 103 350 355 347 322 325 321 309 298 288 287 287 294 303 307 303 313 266 233 221 220 236 243 240 245 262
289 283 278 274 274 274 272 282 292 264 261 261 250 247 223 210 231 247 276 250 254 227 304 315 296 284 286 287 269 263 268 280 289 292 291 295 300 299 288 262 242 224 233 240 238 235 250
304 299 292 276 262 264 265 269 283 267 254 249 255 243 228 251 247 245 245 249 254 281 300 298 286 285 295 289 282 276 275 281 287 288 286 282 278 279 274 260 252 246 236 241 249 246 238
308 312 299 287 275 256 258 260 268 266 256 253 249 252 236 238 240 232 247 267 281 290 291 282 286 295 297 295 290 281 273 273 276 279 287 291 290 290 289 274 259 254 245 244 246 248 243
306 310 310 298 288 267 254 258 262 264 253 249 246 245 243 244 252 254 265 279 293 303 298 297 295 296 292 293 296 295 283 279 282 287 290 293 298 298 295 293 279 262 254 254 252 249 246
300 302 305 303 289 275 261 255 257 257 252 248 242 244 245 246 249 256 267 276 285 291 290 296 295 294 298 302 294 285 290 290 284 286 289 293 298 297 297 295 284 277 268 258 246 242 243
293 293 293 290 288 278 267 261 258 255 250 249 246 244 246 250 255 259 265 275 283 287 291 293 292 297 294 294 299 298 293 290 291 290 287 288 290 292 292 289 286 283 274 261 249 242 239
288 287 285 282 277 273 265 261 257 257 255 253 251 250 250 252 258 262 268 274 277 284 288 293 299 299 297 293 295 298 296 293 294 295 297 299 298 294 291 285 278 274 269 261 254 246 243
292 289 284 280 277 271 268 266 264 259 257 258 257 256 257 258 260 263 267 271 277 281 286 289 295 293 297 298 292 295 295 297 298 300 300 299 295 291 288 283 280 276 268 266 260 253 249
289 288 287 284 279 274 270 267 264 262 259 261 265 263 261 259 258 263 266 269 273 280 287 292 291 293 297 295 294 294 297 294 299 302 302 299 298 298 301 304 309 300 284 273 257 251 247
288 286 284 282 282 279 274 268 266 261 260 261 263 264 266 267 264 261 264 270 274 280 286 290 293 295 297 298 297 297 299 302 305 309 305 299 290 290 297 297 300 304 293 285 274 259 255
287 285 284 282 280 278 276 273 268 264 262 259 260 262 265 267 270 268 271 275 280 282 286 289 292 294 294 294 295 297 302 307 313 309 301 295 290 290 298 302 307 293 284 273 265 254 239
284 284 283 280 278 278 276 274 271 268 265 264 262 260 261 263 267 268 271 273 274 279 282 284 290 292 294 296 298 301 305 313 313 306 288 293 296 302 297 305 286 292 291 283 276 268 260
Height
5925 5924 5922 5921 5919 5918 5916 5914 5912 5911 5909 5907 5905 5903 5902 5900 5899 5898 5898 5898 5899 5899 5900 5900 5900 5901 5903 5903 5902 5903 5902 5901 5897 5903 5905 5901 5905 5904 5903 5907 5909 5908 5906 5905 5903 5901 5903
5925 5924 5922 5921 5919 5917 5915 5913 5912 5910 5909 5907 5905 5903 5901 5899 5898 5897 5896 5896 5896 5898 5898 5898 5900 5901 5903 5903 5903 5903 5903 5901 5899 5905 5910 5908 5907 5903 5905 5907 5908 5908 5907 5904 5904 5902 5900
5925 5924 5922 5920 5919 5917 5915 5913 5911 5909 5907 5905 5904 5902 5900 5898 5897 5895 5894 5894 5894 5895 5895 5896 5897 5900 5902 5903 5903 5904 5903 5902 5901 5906 5907 5909 5908 5906 5902 5904 5905 5906 5905 5902 5902 5901 5903
5925 5923 5922 5920 5918 5916 5914 5912 5910 5908 5906 5903 5902 5900 5899 5898 5896 5894 5892 5891 5891 5892 5892 5893 5895 5897 5899 5901 5903 5905 5905 5903 5899 5907 5909 5908 5907 5905 5903 5906 5908 5907 5905 5902 5901 5902 5903
5924 5923 5921 5919 5917 5915 5913 5911 5908 5906 5904 5902 5900 5898 5897 5896 5894 5893 5891 5889 5888 5888 5889 5890 5892 5895 5898 5899 5900 5902 5905 5905 5905 5901 5908 5909 5906 5905 5904 5906 5909 5908 5909 5904 5904 5904 5902
5923 5921 5920 5918 5916 5914 5912 5909 5907 5904 5902 5900 5898 5897 5895 5893 5891 5889 5887 5887 5885 5885 5885 5886 5889 5893 5895 5895 5898 5900 5903 5906 5908 5900 5905 5905 5907 5904 5904 5906 5905 5905 5907 5904 5905 5907 5902
5922 5920 5918 5916 5914 5912 5909 5907 5905 5902 5900 5898 5896 5894 5892 5890 5887 5884 5883 5883 5884 5884 5883 5884 5887 5889 5890 5893 5896 5897 5899 5902 5904 5906 5902 5898 5900 5902 5904 5905 5901 5900 5907 5904 5905 5902 5903
5921 5919 5917 5915 5913 5910 5908 5905 5903 5900 5898 5896 5894 5892 5889 5887 5884 5881 5879 5878 5878 5879 5880 5880 5883 5886 5888 5890 5893 5894 5896 5899 5899 5902 5904 5902 5902 5900 5901 5905 5903 5901 5900 5904 5903 5904 5900
5920 5917 5915 5913 5911 5908 5905 5903 5900 5898 5896 5894 5892 5889 5888 5885 5882 5879 5877 5875 5875 5876 5878 5879 5881 5883 5886 5888 5890 5891 5892 5893 5896 5898 5899 5899 5901 5900 5903 5904 5901 5899 5897 5897 5904 5904 5906
5917 5915 5913 5911 5909 5906 5903 5900 5897 5895 5893 5891 5889 5887 5887 5884 5883 5879 5876 5874 5873 5875 5877 5881 5881 5882 5885 5887 5889 5890 5890 5893 5892 5894 5895 5897 5897 5898 5903 5905 5903 5901 5900 5903 5904 5905 5907
5915 5913 5911 5908 5906 5904 5901 5898 5895 5892 5889 5888 5887 5886 5886 5884 5882 5879 5878 5875 5876 5876 5880 5883 5882 5882 5885 5887 5889 5891 5891 5891 5892 5892 5894 5895 5893 5893 5898 5900 5903 5905 5904 5903 5903 5902 5904
5912 5910 5908 5905 5903 5901 5898 5895 5892 5889 5886 5885 5885 5885 5885 5884 5882 5881 5880 5879 5879 5879 5879 5881 5881 5883 5885 5887 5888 5889 5890 5890 5891 5891 5891 5893 5895 5896 5896 5896 5895 5895 5896 5897 5898 5900 5900
5908 5906 5904 5902 5900 5897 5895 5892 5890 5887 5885 5884 5884 5884 5883 5883 5883 5881 5881 5881 5881 5878 5880 5882 5882 5884 5885 5885 5886 5887 5887 5888 5888 5888 5889 5891 5892 5891 5891 5892 5893 5894 5892 5892 5893 5896 5896
5903 5901 5900 5898 5896 5894 5892 5889 5887 5885 5884 5883 5882 5882 5882 5882 5882 5881 5881 5881 5882 5880 5879 5881 5881 5883 5882 5881 5883 5883 5884 5885 5883 5882 5882 5884 5888 5889 5888 5891 5893 5893 5890 5889 5888 5890 5891
5897 5896 5895 5894 5892 5891 5888 5887 5885 5884 5882 5881 5880 5880 5880 5880 5880 5881 5881 5881 5880 5880 5880 5879 5881 5881 5881 5881 5881 5882 5880 5880 5879 5878 5879 5878 5881 5885 5886 5889 5889 5890 5889 5886 5884 5884 5884
5891 5890 5890 5889 5888 5887 5885 5883 5882 5881 5880 5880 5879 5879 5878 5878 5878 5880 5880 5880 5880 5880 5880 5881 5881 5881 5881 5881 5881 5880 5880 5879 5876 5876 5876 5876 5877 5881 5882 5884 5883 5886 5885 5881 5878 5879 5880
5885 5884 5883 5883 5882 5882 5881 5880 5879 5878 5878 5878 5877 5876 5876 5875 5877 5878 5878 5878 5879 5880 5879 5880 5880 5880 5880 5879 5879 5878 5876 5874 5875 5874 5874 5873 5874 5879 5879 5879 5879 5883 5876 5875 5877 5876 5874
5878 5876 5876 5876 5877 5876 5876 5876 5875 5875 5875 5876 5875 5875 5874 5874 5877 5877 5877 5877 5877 5878 5878 5878 5878 5877 5876 5876 5876 5874 5872 5866 5871 5872 5872 5870 5869 5870 5874 5874 5873 5874 5870 5871 5870 5872 5871
5872 5870 5869 5868 5869 5870 5871 5871 5871 5871 5871 5872 5873 5872 5873 5874 5874 5874 5874 5875 5875 5876 5876 5875 5872 5872 5873 5872 5872 5870 5870 5864 5865 5864 5863 5865 5865 5864 5867 5869 5867 5866 5865 5864 5863 5862 5865
5868 5866 5864 5862 5862 5863 5864 5866 5866 5866 5866 5868 5869 5868 5870 5869 5868 5870 5870 5871 5870 5872 5872 5870 5867 5867 5867 5865 5864 5865 5865 5863 5858 5856 5855 5854 5855 5856 5856 5860 5860 5860 5859 5856 5854 5855 5855
5864 5862 5860 5857 5856 5856 5857 5859 5860 5861 5862 5863 5863 5864 5864 5865 5864 5865 5866 5866 5866 5865 5865 5865 5862 5861 5861 5860 5859 5857 5856 5857 5854 5851 5848 5845 5845 5844 5844 5845 5846 5847 5848 5848 5846 5846 5847
5860 5858 5856 5854 5853 5852 5852 5853 5854 5855 5856 5857 5858 5859 5859 5860 5861 5862 5862 5861 5861 5862 5860 5858 5857 5855 5853 5853 5852 5851 5849 5847 5849 5844 5840 5838 5836 5833 5832 5834 5831 5830 5834 5836 5834 5832 5831
5855 5853 5852 5851 5849 5848 5848 5848 5848 5849 5850 5851 5852 5852 5852 5854 5854 5855 5856 5856 5855 5855 5853 5851 5850 5850 5849 5845 5844 5843 5841 5840 5838 5837 5834 5832 5828 5825 5822 5819 5816 5817 5818 5818 5818 5815 5817
5848 5847 5846 5845 5844 5844 5844 5843 5843 5843 5844 5844 5845 5846 5846 5846 5847 5848 5849 5849 5848 5847 5847 5843 5844 5842 5842 5838 5838 5835 5833 5831 5828 5825 5821 5819 5815 5810 5807 5803 5801 5801 5798 5800 5800 5799 5802
5841 5840 5839 5837 5837 5837 5837 5836 5837 5837 5837 5837 5837 5839 5838 5838 5839 5841 5840 5841 5840 5839 5839 5837 5837 5834 5833 5831 5829 5828 5825 5822 5818 5815 5811 5807 5801 5795 5790 5786 5785 5786 5784 5784 5786 5784 5789
5834 5832 5831 5829 5828 5828 5828 5828 5828 5828 5829 5830 5830 5831 5830 5831 5833 5831 5832 5833 5833 5832 5830 5829 5825 5825 5825 5823 5820 5816 5815 5813 5811 5807 5800 5791 5785 5780 5774 5770 5768 5770 5773 5774 5773 5771 5776
5825 5823 5822 5821 5819 5819 5819 5819 5818 5819 5820 5821 5822 5822 5823 5822 5823 5824 5824 5824 5824 5824 5823 5821 5818 5815 5814 5812 5810 5807 5804 5800 5797 5792 5786 5779 5776 5772 5768 5763 5761 5761 5762 5763 5762 5767 5767
5815 5814 5812 5811 5810 5809 5809 5809 5809 5809 5809 5811 5812 5814 5814 5815 5814 5815 5816 5816 5816 5814 5814 5812 5811 5808 5806 5804 5801 5798 5794 5790 5786 5780 5771 5766 5766 5764 5762 5760 5759 5753 5753 5751 5751 5753 5755
5804 5803 5802 5801 5800 5799 5799 5799 5799 5799 5799 5799 5800 5803 5804 5805 5804 5805 5806 5807 5806 5805 5805 5803 5801 5799 5796 5795 5792 5788 5783 5779 5774 5770 5762 5759 5757 5756 5754 5755 5749 5748 5744 5743 5738 5738 5741